| time (UTC) | temp F | wind direction | speed MPH | gust MPH | rain 1hr in | rain 24hr in | rain mn in | humidity % | barometer mb |
| 20260904123100 | 71 | 0 | 0.0 | 0.0 | 0.00 | 0.01 | 0.00 | 52 | 1014.1 |
| 20260904123044 | 71 | 360 | 0.0 | 0.0 | 0.00 | 0.01 | 0.00 | 63 | 1013.9 |
| 20260904121603 | 71 | 0 | 0.0 | 0.0 | 0.00 | 0.01 | 0.00 | 51 | 1013.9 |
| 20260904121544 | 71 | 360 | 0.0 | 0.0 | 0.00 | 0.01 | 0.00 | 63 | 1013.7 |
| 20260904120111 | 71 | 0 | 0.0 | 0.0 | 0.00 | 0.01 | 0.00 | 51 | 1013.9 |
| 20260904120054 | 71 | 360 | 0.0 | 0.0 | 0.00 | 0.01 | 0.00 | 62 | 1013.6 |
| 20260904114600 | 71 | 0 | 0.0 | 0.0 | 0.00 | 0.01 | 0.00 | 51 | 1013.8 |
| 20260904114539 | 71 | 360 | 0.0 | 0.0 | 0.00 | 0.01 | 0.00 | 62 | 1013.5 |
| 20260904113104 | 71 | 0 | 0.0 | 0.0 | 0.00 | 0.01 | 0.00 | 51 | 1013.7 |
| 20260904113038 | 71 | 360 | 0.0 | 0.0 | 0.00 | 0.01 | 0.00 | 63 | 1013.3 |
| 20260904111608 | 71 | 0 | 0.0 | 0.0 | 0.00 | 0.01 | 0.00 | 51 | 1013.6 |
| 20260904111538 | 71 | 360 | 0.0 | 0.0 | 0.00 | 0.01 | 0.00 | 62 | 1013.2 |
| 20260904110037 | 71 | 360 | 0.0 | 0.0 | 0.00 | 0.01 | 0.00 | 62 | 1013.2 |
| 20260904104602 | 71 | 0 | 0.0 | 0.0 | 0.00 | 0.01 | 0.00 | 51 | 1013.6 |
| 20260904104600 | 71 | 360 | 0.0 | 0.0 | 0.00 | 0.01 | 0.00 | 62 | 1013.2 |
| 20260904103104 | 71 | 0 | 0.0 | 0.0 | 0.00 | 0.01 | 0.00 | 51 | 1013.7 |
| 20260904103037 | 71 | 360 | 0.0 | 0.0 | 0.00 | 0.01 | 0.00 | 63 | 1013.4 |
| 20260904101607 | 71 | 0 | 0.0 | 0.0 | 0.00 | 0.01 | 0.00 | 52 | 1013.7 |
| 20260904101540 | 71 | 360 | 0.0 | 0.0 | 0.00 | 0.01 | 0.00 | 63 | 1013.3 |
| 20260904100103 | 71 | 0 | 0.0 | 0.0 | 0.00 | 0.01 | 0.00 | 51 | 1013.6 |
| 20260904100033 | 71 | 360 | 0.0 | 0.0 | 0.00 | 0.01 | 0.00 | 63 | 1013.3 |
| 20260904094611 | 72 | 0 | 0.0 | 0.0 | 0.00 | 0.01 | 0.00 | 52 | 1013.5 |
| 20260904094547 | 72 | 360 | 0.0 | 0.0 | 0.00 | 0.01 | 0.00 | 63 | 1013.2 |
| 20260904093113 | 72 | 0 | 0.0 | 0.0 | 0.00 | 0.01 | 0.00 | 51 | 1013.5 |
| 20260904093031 | 72 | 360 | 0.0 | 0.0 | 0.00 | 0.01 | 0.00 | 63 | 1013.1 |
| 20260904091601 | 72 | 0 | 0.0 | 0.0 | 0.00 | 0.01 | 0.00 | 51 | 1013.3 |
| 20260904091530 | 72 | 360 | 0.0 | 0.0 | 0.00 | 0.01 | 0.00 | 63 | 1012.9 |
| 20260904090029 | 72 | 360 | 0.0 | 0.0 | 0.00 | 0.01 | 0.00 | 63 | 1013.1 |
| 20260904084601 | 72 | 0 | 0.0 | 0.0 | 0.00 | 0.02 | 0.00 | 52 | 1013.4 |
| 20260904084528 | 72 | 360 | 0.0 | 0.0 | 0.00 | 0.02 | 0.00 | 64 | 1013.0 |
| 20260904083103 | 72 | 0 | 0.0 | 0.0 | 0.00 | 0.02 | 0.00 | 53 | 1013.3 |
| 20260904083028 | 72 | 360 | 0.0 | 0.0 | 0.00 | 0.02 | 0.00 | 64 | 1012.9 |
| 20260904081603 | 72 | 0 | 0.0 | 0.0 | 0.00 | 0.02 | 0.00 | 53 | 1013.2 |
| 20260904081526 | 72 | 360 | 0.0 | 0.0 | 0.00 | 0.02 | 0.00 | 64 | 1012.9 |
| 20260904080104 | 73 | 0 | 0.0 | 0.0 | 0.00 | 0.02 | 0.00 | 53 | 1013.3 |
| 20260904080027 | 73 | 360 | 0.0 | 0.0 | 0.00 | 0.02 | 0.00 | 64 | 1012.9 |
| 20260904074601 | 73 | 0 | 0.0 | 0.0 | 0.00 | 0.02 | 0.00 | 53 | 1013.3 |
| 20260904074523 | 73 | 360 | 0.0 | 0.0 | 0.00 | 0.02 | 0.00 | 65 | 1012.8 |
| 20260904073103 | 73 | 0 | 0.0 | 0.0 | 0.00 | 0.02 | 0.00 | 53 | 1013.2 |
| 20260904073029 | 73 | 360 | 0.0 | 0.0 | 0.00 | 0.02 | 0.00 | 65 | 1012.8 |
| 20260904071606 | 73 | 0 | 0.0 | 0.0 | 0.00 | 0.02 | 0.00 | 53 | 1013.2 |
| 20260904071521 | 73 | 360 | 0.0 | 0.0 | 0.00 | 0.02 | 0.00 | 65 | 1012.7 |
| 20260904070106 | 73 | 0 | 0.0 | 0.0 | 0.00 | 0.02 | 0.00 | 54 | 1013.3 |
| 20260904070036 | 73 | 360 | 0.0 | 0.0 | 0.00 | 0.02 | 0.00 | 65 | 1012.9 |
| 20260904064600 | 74 | 0 | 0.0 | 0.0 | 0.00 | 0.02 | 0.00 | 55 | 1013.2 |
| 20260904064519 | 74 | 360 | 0.0 | 0.0 | 0.00 | 0.02 | 0.00 | 66 | 1012.9 |
| 20260904063102 | 74 | 0 | 0.0 | 0.0 | 0.00 | 0.02 | 0.00 | 54 | 1013.1 |
| 20260904063018 | 74 | 360 | 0.0 | 0.0 | 0.00 | 0.02 | 0.00 | 66 | 1012.7 |
| 20260904061605 | 74 | 0 | 0.0 | 0.0 | 0.00 | 0.02 | 0.00 | 55 | 1013.1 |
| 20260904061525 | 74 | 360 | 0.0 | 0.0 | 0.00 | 0.02 | 0.00 | 67 | 1012.7 |
| 20260904060104 | 74 | 0 | 0.0 | 0.0 | 0.00 | 0.02 | 0.00 | 55 | 1013.1 |
| 20260904060015 | 74 | 360 | 0.0 | 0.0 | 0.00 | 0.02 | 0.00 | 67 | 1012.6 |
| 20260904054605 | 74 | 0 | 0.0 | 0.0 | 0.00 | 0.02 | 0.00 | 56 | 1012.9 |
| 20260904054517 | 74 | 360 | 0.0 | 0.0 | 0.00 | 0.02 | 0.00 | 67 | 1012.4 |
| 20260904053141 | 74 | 0 | 0.0 | 0.0 | 0.00 | 0.02 | 0.00 | 56 | 1013.1 |
| 20260904053012 | 74 | 360 | 0.0 | 0.0 | 0.00 | 0.02 | 0.00 | 67 | 1012.5 |
| 20260904051604 | 75 | 0 | 0.0 | 0.0 | 0.00 | 0.02 | 0.00 | 57 | 1012.8 |
| 20260904051507 | 75 | 360 | 0.0 | 0.0 | 0.00 | 0.02 | 0.00 | 69 | 1012.4 |
| 20260904050109 | 75 | 360 | 0.0 | 0.0 | 0.00 | 0.02 | 0.00 | 68 | 1012.3 |
| 20260904044603 | 75 | 0 | 0.0 | 0.0 | 0.00 | 0.03 | 0.02 | 57 | 1012.5 |
| 20260904044501 | 75 | 360 | 0.0 | 0.0 | 0.00 | 0.03 | 0.02 | 68 | 1012.1 |
| 20260904043109 | 76 | 360 | 0.0 | 0.0 | 0.00 | 0.03 | 0.02 | 69 | 1012.2 |
| 20260904043103 | 76 | 0 | 0.0 | 0.0 | 0.00 | 0.03 | 0.02 | 58 | 1012.6 |
| 20260904041606 | 76 | 360 | 0.0 | 0.0 | 0.00 | 0.03 | 0.02 | 69 | 1012.4 |
| 20260904040107 | 76 | 0 | 0.0 | 0.0 | 0.00 | 0.03 | 0.02 | 57 | 1012.9 |
| 20260904034606 | 77 | 0 | 0.0 | 0.0 | 0.00 | 0.04 | 0.02 | 58 | 1013.0 |
| 20260904034558 | 77 | 360 | 0.0 | 0.0 | 0.00 | 0.04 | 0.02 | 69 | 1012.5 |
| 20260904033122 | 77 | 0 | 0.0 | 0.0 | 0.00 | 0.04 | 0.02 | 58 | 1013.0 |
| 20260904033106 | 77 | 360 | 0.0 | 0.0 | 0.00 | 0.04 | 0.02 | 69 | 1012.6 |
| 20260904031604 | 77 | 0 | 0.0 | 0.0 | 0.00 | 0.04 | 0.02 | 60 | 1013.1 |
| 20260904031558 | 77 | 360 | 0.0 | 0.0 | 0.00 | 0.04 | 0.02 | 72 | 1012.5 |
| 20260904030104 | 78 | 0 | 0.0 | 0.0 | 0.00 | 0.04 | 0.02 | 60 | 1013.2 |
| 20260904030057 | 78 | 360 | 0.0 | 0.0 | 0.00 | 0.04 | 0.02 | 71 | 1012.6 |
| 20260904024615 | 78 | 360 | 0.0 | 0.0 | 0.00 | 0.10 | 0.02 | 71 | 1012.5 |
| 20260904024605 | 78 | 0 | 0.0 | 0.0 | 0.00 | 0.10 | 0.02 | 59 | 1013.1 |
| 20260904023105 | 78 | 360 | 0.0 | 0.0 | 0.00 | 0.10 | 0.02 | 72 | 1012.6 |
| 20260904023100 | 78 | 0 | 0.0 | 1.0 | 0.00 | 0.10 | 0.02 | 60 | 1013.0 |
| 20260904021603 | 79 | 0 | 0.0 | 1.0 | 0.00 | 0.10 | 0.02 | 62 | 1013.1 |
| 20260904021559 | 79 | 360 | 0.0 | 1.0 | 0.00 | 0.10 | 0.02 | 73 | 1012.4 |
| 20260904020126 | 80 | 0 | 0.0 | 0.0 | 0.00 | 0.10 | 0.02 | 62 | 1012.9 |
| 20260904020056 | 80 | 360 | 0.0 | 0.0 | 0.00 | 0.10 | 0.02 | 73 | 1012.3 |
| 20260904014650 | 81 | 0 | 0.0 | 0.0 | 0.00 | 0.19 | 0.02 | 61 | 1012.8 |
| 20260904014605 | 81 | 360 | 0.0 | 0.0 | 0.00 | 0.19 | 0.02 | 73 | 1012.1 |
| 20260904013110 | 82 | 0 | 0.0 | 0.0 | 0.00 | 0.19 | 0.02 | 60 | 1012.5 |
| 20260904013054 | 82 | 360 | 0.0 | 0.0 | 0.00 | 0.19 | 0.02 | 71 | 1011.8 |
| 20260904011618 | 83 | 0 | 0.0 | 0.0 | 0.00 | 0.19 | 0.02 | 58 | 1012.4 |
| 20260904011552 | 83 | 360 | 0.0 | 0.0 | 0.00 | 0.19 | 0.02 | 70 | 1011.7 |
| 20260904010107 | 84 | 0 | 0.0 | 3.0 | 0.00 | 0.19 | 0.02 | 56 | 1012.1 |
| 20260904010052 | 84 | 360 | 0.0 | 2.0 | 0.00 | 0.19 | 0.02 | 68 | 1011.5 |
| 20260904004606 | 85 | 134 | 0.0 | 1.0 | 0.00 | 0.30 | 0.02 | 56 | 1011.9 |
| 20260904004550 | 85 | 134 | 0.0 | 2.0 | 0.00 | 0.30 | 0.02 | 68 | 1011.2 |
| 20260904003116 | 86 | 0 | 0.0 | 3.0 | 0.00 | 0.30 | 0.02 | 55 | 1011.9 |
| 20260904003051 | 86 | 134 | 0.0 | 2.0 | 0.00 | 0.30 | 0.02 | 66 | 1011.3 |
| 20260904001600 | 87 | 134 | 2.0 | 5.0 | 0.00 | 0.30 | 0.02 | 53 | 1011.8 |
| 20260904001559 | 87 | 134 | 2.0 | 5.0 | 0.00 | 0.30 | 0.02 | 64 | 1011.2 |
| 20260904000111 | 88 | 162 | 3.0 | 6.0 | 0.00 | 0.30 | 0.02 | 63 | 1011.3 |
| 20260904000107 | 88 | 162 | 2.0 | 6.0 | 0.00 | 0.30 | 0.02 | 52 | 1011.9 |
| 20260903234613 | 89 | 137 | 2.0 | 8.0 | 0.00 | 0.52 | 0.02 | 51 | 1011.8 |
| 20260903234548 | 89 | 137 | 3.0 | 8.0 | 0.00 | 0.52 | 0.02 | 62 | 1011.2 |
| 20260903233107 | 89 | 100 | 2.0 | 9.0 | 0.00 | 0.52 | 0.02 | 62 | 1011.2 |
| 20260903233100 | 89 | 100 | 3.0 | 9.0 | 0.00 | 0.52 | 0.02 | 50 | 1011.8 |
| 20260903231604 | 89 | 188 | 4.0 | 9.0 | 0.00 | 0.52 | 0.02 | 50 | 1011.9 |
| 20260903231548 | 89 | 188 | 4.0 | 7.0 | 0.00 | 0.52 | 0.02 | 61 | 1011.3 |
| 20260903230109 | 90 | 181 | 4.0 | 9.0 | 0.00 | 0.52 | 0.02 | 49 | 1011.9 |
| 20260903230105 | 90 | 175 | 5.0 | 7.0 | 0.00 | 0.52 | 0.02 | 60 | 1011.3 |
| 20260903224605 | 90 | 181 | 4.0 | 9.0 | 0.00 | 0.54 | 0.02 | 49 | 1012.0 |
| 20260903224556 | 90 | 181 | 4.0 | 9.0 | 0.00 | 0.54 | 0.02 | 61 | 1011.4 |
| 20260903223111 | 90 | 182 | 2.0 | 9.0 | 0.00 | 0.54 | 0.02 | 62 | 1011.5 |
| 20260903223101 | 90 | 181 | 3.0 | 10.0 | 0.00 | 0.54 | 0.02 | 50 | 1012.1 |
| 20260903221600 | 89 | 142 | 3.0 | 9.0 | 0.00 | 0.54 | 0.02 | 51 | 1012.3 |
| 20260903221542 | 89 | 148 | 2.0 | 8.0 | 0.00 | 0.54 | 0.02 | 63 | 1011.8 |
| 20260903220107 | 90 | 127 | 5.0 | 12.0 | 0.00 | 0.54 | 0.02 | 48 | 1012.6 |
| 20260903220040 | 90 | 127 | 4.0 | 10.0 | 0.00 | 0.54 | 0.02 | 59 | 1011.9 |
| 20260903214600 | 90 | 153 | 4.0 | 12.0 | 0.00 | 0.54 | 0.02 | 49 | 1012.8 |
| 20260903214546 | 90 | 153 | 2.0 | 11.0 | 0.00 | 0.54 | 0.02 | 60 | 1012.1 |
| 20260903213100 | 90 | 161 | 4.0 | 15.0 | 0.00 | 0.54 | 0.02 | 51 | 1012.9 |
| 20260903213048 | 90 | 147 | 5.0 | 14.0 | 0.00 | 0.54 | 0.02 | 63 | 1012.2 |
| 20260903211602 | 89 | 174 | 4.0 | 8.0 | 0.00 | 0.54 | 0.02 | 49 | 1012.9 |
| 20260903211541 | 89 | 174 | 4.0 | 6.0 | 0.00 | 0.54 | 0.02 | 60 | 1012.2 |
| 20260903210047 | 91 | 184 | 4.0 | 10.0 | 0.00 | 0.54 | 0.02 | 59 | 1012.5 |
| 20260903204602 | 90 | 199 | 4.0 | 9.0 | 0.00 | 0.54 | 0.02 | 49 | 1012.9 |
| 20260903204547 | 90 | 200 | 4.0 | 8.0 | 0.00 | 0.54 | 0.02 | 61 | 1012.4 |
| 20260903203101 | 90 | 178 | 6.0 | 10.0 | 0.00 | 0.54 | 0.02 | 48 | 1013.0 |
| 20260903203049 | 90 | 154 | 7.0 | 10.0 | 0.00 | 0.54 | 0.02 | 59 | 1012.5 |
| 20260903201601 | 89 | 153 | 2.0 | 6.0 | 0.00 | 0.54 | 0.02 | 45 | 1013.0 |
| 20260903201543 | 89 | 157 | 3.0 | 8.0 | 0.00 | 0.54 | 0.02 | 57 | 1012.6 |
| 20260903200101 | 89 | 188 | 1.0 | 8.0 | 0.00 | 0.54 | 0.02 | 47 | 1013.1 |
| 20260903194607 | 90 | 184 | 3.0 | 7.0 | 0.00 | 0.54 | 0.02 | 46 | 1013.2 |
| 20260903194559 | 90 | 171 | 3.0 | 7.0 | 0.00 | 0.54 | 0.02 | 57 | 1012.8 |
| 20260903193118 | 90 | 166 | 2.0 | 7.0 | 0.00 | 0.54 | 0.02 | 46 | 1013.5 |
| 20260903193056 | 90 | 166 | 3.0 | 9.0 | 0.00 | 0.54 | 0.02 | 57 | 1013.1 |
| 20260903191608 | 89 | 204 | 4.0 | 10.0 | 0.00 | 0.54 | 0.02 | 44 | 1013.7 |
| 20260903191555 | 89 | 202 | 4.0 | 7.0 | 0.00 | 0.54 | 0.02 | 56 | 1013.2 |
| 20260903190109 | 89 | 0 | 2.0 | 7.0 | 0.00 | 0.54 | 0.02 | 46 | 1013.7 |
| 20260903190054 | 89 | 146 | 1.0 | 7.0 | 0.00 | 0.54 | 0.02 | 58 | 1013.3 |
| 20260903184602 | 89 | 90 | 1.0 | 6.0 | 0.00 | 0.54 | 0.02 | 46 | 1013.6 |
| 20260903184554 | 89 | 90 | 2.0 | 5.0 | 0.00 | 0.55 | 0.02 | 58 | 1013.3 |
| 20260903183105 | 88 | 246 | 1.0 | 6.0 | 0.00 | 0.54 | 0.02 | 47 | 1013.7 |
| 20260903183050 | 88 | 246 | 1.0 | 4.0 | 0.00 | 0.55 | 0.02 | 58 | 1013.3 |
| 20260903181609 | 88 | 178 | 2.0 | 7.0 | 0.00 | 0.54 | 0.02 | 48 | 1013.9 |
| 20260903181549 | 88 | 196 | 1.0 | 7.0 | 0.00 | 0.55 | 0.02 | 60 | 1013.5 |
| 20260903180119 | 88 | 216 | 3.0 | 8.0 | 0.00 | 0.54 | 0.02 | 47 | 1014.1 |
| 20260903180048 | 88 | 216 | 3.0 | 8.0 | 0.00 | 0.55 | 0.02 | 59 | 1013.9 |
| 20260903174601 | 87 | 212 | 1.0 | 8.0 | 0.00 | 0.55 | 0.02 | 51 | 1014.5 |
| 20260903174544 | 87 | 204 | 0.0 | 4.0 | 0.00 | 0.55 | 0.02 | 62 | 1014.2 |
| 20260903173106 | 87 | 185 | 4.0 | 9.0 | 0.00 | 0.55 | 0.02 | 50 | 1014.9 |
| 20260903173043 | 87 | 185 | 4.0 | 8.0 | 0.00 | 0.55 | 0.02 | 61 | 1014.5 |
| 20260903171606 | 86 | 186 | 4.0 | 10.0 | 0.00 | 0.55 | 0.02 | 51 | 1015.2 |
| 20260903171540 | 86 | 186 | 3.0 | 9.0 | 0.00 | 0.55 | 0.02 | 62 | 1014.9 |
| 20260903170219 | 85 | 164 | 6.0 | 12.0 | 0.00 | 0.55 | 0.02 | 49 | 1015.1 |
| 20260903170038 | 85 | 167 | 5.0 | 10.0 | 0.00 | 0.55 | 0.02 | 61 | 1014.9 |
| 20260903164609 | 85 | 288 | 5.0 | 11.0 | 0.00 | 0.55 | 0.02 | 50 | 1015.1 |
| 20260903164535 | 85 | 290 | 3.0 | 11.0 | 0.00 | 0.56 | 0.02 | 62 | 1014.9 |
| 20260903163104 | 84 | 318 | 2.0 | 10.0 | 0.00 | 0.55 | 0.02 | 52 | 1015.1 |
| 20260903163039 | 84 | 289 | 2.0 | 10.0 | 0.00 | 0.56 | 0.02 | 64 | 1015.0 |
| 20260903161623 | 84 | 123 | 3.0 | 8.0 | 0.00 | 0.55 | 0.02 | 52 | 1015.1 |
| 20260903161532 | 84 | 123 | 2.0 | 8.0 | 0.00 | 0.56 | 0.02 | 64 | 1015.0 |
| 20260903160106 | 82 | 308 | 1.0 | 6.0 | 0.00 | 0.55 | 0.02 | 55 | 1015.2 |
| 20260903160035 | 82 | 306 | 1.0 | 5.0 | 0.00 | 0.56 | 0.02 | 66 | 1015.1 |
| 20260903154605 | 81 | 0 | 1.0 | 4.0 | 0.00 | 0.57 | 0.02 | 54 | 1015.2 |
| 20260903154524 | 81 | 271 | 1.0 | 4.0 | 0.00 | 0.61 | 0.02 | 66 | 1015.1 |
| 20260903153104 | 80 | 200 | 2.0 | 7.0 | 0.01 | 0.57 | 0.02 | 54 | 1015.0 |
| 20260903153020 | 80 | 200 | 1.0 | 5.0 | 0.01 | 0.61 | 0.02 | 66 | 1014.9 |
| 20260903151604 | 79 | 179 | 1.0 | 7.0 | 0.01 | 0.57 | 0.02 | 53 | 1014.9 |
| 20260903151519 | 79 | 179 | 1.0 | 6.0 | 0.01 | 0.61 | 0.02 | 64 | 1014.8 |
| 20260903150120 | 79 | 0 | 1.0 | 4.0 | 0.01 | 0.57 | 0.02 | 53 | 1015.1 |
| 20260903150017 | 78 | 208 | 1.0 | 4.0 | 0.01 | 0.61 | 0.02 | 64 | 1015.0 |
| 20260903144608 | 77 | 0 | 1.0 | 6.0 | 0.01 | 0.61 | 0.02 | 52 | 1015.2 |
| 20260903144532 | 77 | 199 | 0.0 | 6.0 | 0.01 | 0.63 | 0.02 | 64 | 1015.1 |
| 20260903143105 | 78 | 0 | 0.0 | 4.0 | 0.00 | 0.60 | 0.01 | 54 | 1015.2 |
| 20260903143016 | 78 | 256 | 0.0 | 4.0 | 0.00 | 0.62 | 0.01 | 65 | 1015.2 |
| 20260903141604 | 77 | 0 | 0.0 | 3.0 | 0.00 | 0.60 | 0.01 | 54 | 1015.1 |
| 20260903141515 | 77 | 257 | 0.0 | 3.0 | 0.00 | 0.62 | 0.01 | 66 | 1015.1 |
| 20260903140114 | 77 | 0 | 1.0 | 4.0 | 0.00 | 0.60 | 0.01 | 54 | 1015.4 |
| 20260903140014 | 77 | 253 | 1.0 | 4.0 | 0.00 | 0.62 | 0.01 | 66 | 1015.3 |
| 20260903134616 | 78 | 0 | 0.0 | 4.0 | 0.00 | 0.62 | 0.01 | 54 | 1015.4 |
| 20260903134513 | 78 | 223 | 0.0 | 4.0 | 0.00 | 0.86 | 0.01 | 66 | 1015.3 |
| 20260903133106 | 78 | 0 | 0.0 | 0.0 | 0.00 | 0.62 | 0.01 | 54 | 1015.3 |
| 20260903133016 | 78 | 162 | 0.0 | 0.0 | 0.00 | 0.86 | 0.01 | 66 | 1015.2 |
| 20260903131608 | 78 | 0 | 0.0 | 2.0 | 0.00 | 0.62 | 0.01 | 54 | 1015.3 |
| 20260903131511 | 78 | 162 | 0.0 | 2.0 | 0.00 | 0.86 | 0.01 | 66 | 1015.2 |
| 20260903130010 | 78 | 360 | 0.0 | 2.0 | 0.00 | 0.86 | 0.01 | 66 | 1015.2 |
| 20260903124631 | 77 | 360 | 1.0 | 3.0 | 0.00 | 0.86 | 0.01 | 54 | 1014.5 |
| 20260903124506 | 77 | 360 | 1.0 | 3.0 | 0.00 | 0.86 | 0.01 | 66 | 1014.5 |